SCP
0 0 0 0 0 0 0 0 0 0 0 0 0 0 0 0 0 0 0 0 0 0 0 0 0 0 0 0 0 0 0 0 0 0 0 0 0 0 0 0 0 0 0
0 0 0 0 0 0 0 0 0 0 0 0 0 0 0 0 0 0 0 0 0 0 0 0 0 0 0 0 0 0 0 0 0 0 0 0 0 0 0 0 0 0 0
0 0 0 0 0 0 0 0 0 0 0 0 0 0 0 0 0 0 0 0 0 0 0 0 0 0 0 0 0 0 0 0 0 0 0 0 0 0 0 0 0 0 0
0 0 0 0 0 0 0 0 0 0 0 0 0 0 0 0 0 0 0 0 0 0 0 0 0 0 0 0 0 0 0 0 0 0 0 0 0 0 0 0 0 0 0
0 0 0 0 0 0 0 0 0 0 0 0 0 0 0 0 0 0 0 0 0 0 0 0 0 0 0 0 0 0 0 0 0 0 0 0 0 0 0 0 0 0 0
0 0 0 0 0 0 0 0 0 0 0 0 0 0 0 0 0 0 0 0 0 0 0 0 0 0 0 0 0 0 0 0 0 0 0 0 0 0 0 0 0 0 0
0 0 0 0 0 0 0 0 0 0 0 0 0 0 0 0 0 0 0 0 0 0 0 0 0 0 0 0 0 0 0 0 0 0 0 0 0 0 0 0 0 0 0
0 0 0 0 0 0 0 0 0 0 0 0 0 0 0 0 0 0 0 0 0 0 0 0 0 0 0 0 0 0 0 0 0 0 0 0 0 0 0 0 0 0 0
0 0 0 0 0 0 0 0 0 0 0 0 0 0 0 0 0 0 0 0 0 0 0 0 0 0 0 0 0 0 0 0 0 0 0 0 0 0 0 0 0 0 0
0 0 0 0 0 0 0 0 0 0 0 0 0 0 0 0 0 0 0 0 0 0 0 0 0 0 0 0 0 0 0 0 0 0 0 0 0 0 0 0 0 0 0
0 0 0 0 0 0 0 0 0 0 0 0 0 0 0 0 0 0 0 0 0 0 0 0 0 0 0 0 0 0 0 0 0 0 0 0 0 0 0 0 0 0 0
0 0 0 0 0 0 0 0 0 0 0 0 0 0 0 0 0 0 0 0 0 0 0 0 0 0 0 0 0 0 0 0 0 0 0 0 0 0 0 0 0 0 0
0 0 0 0 0 0 0 0 0 0 0 0 0 0 0 0 0 0 0 0 0 0 0 0 0 0 0 0 0 0 0 0 0 0 0 0 0 0 0 0 0 0 0
0 0 0 0 0 0 0 0 0 0 0 0 0 0 0 0 0 0 0 0 0 0 0 0 0 0 0 0 0 0 0 0 0 0 0 0 0 0 0 0 0 0 0
0 0 0 0 0 0 0 0 0 0 0 0 0 0 0 0 0 0 0 0 0 0 0 0 0 0 0 0 0 0 0 0 0 0 0 0 0 0 0 0 0 0 0
0 0 0 0 0 0 0 0 0 0 0 0 0 0 0 0 0 0 0 0 0 0 0 0 0 0 0 0 0 0 0 0 0 0 0 0 0 0 0 0 0 0 0
0 0 0 0 0 0 0 0 0 0 0 0 0 0 0 0 -0 -0 0 0 0 0 0 0 0 0 0 0 0 0 0 0 0 0 0 0 0 0 0 0 0 0 0
0 0 0 0 0 0 0 0 0 0 0 0 0 0 -0 -0 -0 0 0 0 0 0 0 0 0 0 0 0 0 0 0 0 0 0 0 0 0 0 0 0 0 0 0
-0 0 -0 0 0 0 0 0 0 0 0 -0 0 0 0 0 0 0 0 0 0 0 0 0 0 0 0 0 0 0 0 0 0 0 0 0 0 0 0 0 0 0 0
0 -0 -0 -0 -0 -0 -0 0 -0 -0 -0 -0 0 0 0 0 0 0 0 0 0 0 0 0 0 0 0 0 0 0 0 0 0 0 0 0 0 0 0 0 0 0 0
-0 -0 0 -0 -0 0 0 0 -0 -0 0 0 0 0 0 0 0 0 0 0 0 0 0 0 0 0 0 0 0 0 0 0 0 0 0 0 0 0 0 0 0 0 0
-0 -0 0 0 0 0 0 0 -0 0 0 0 0 0 0 0 0 0 0 0 0 0 0 0 0 0 0 0 0 0 0 0 0 0 0 0 0 0 0 0 0 0 0
-0 -0 -0 0 0 0 0 0 0 0 0 0 0 0 0 0 0 0 0 0 0 0 0 0 0 0 0 0 0 0 0 0 0 0 0 0 0 0 0 0 0 0 0
-0 -0 0 0 -0 -0 -0 -0 0 0 0 0 0 0 0 0 0 0 0 0 0 0 0 0 0 0 0 0 0 0 0 0 0 0 0 0 0 0 0 0 0 0 0
-0 -0 0 0 -0 0 0 0 0 0 0 0 0 0 0 0 0 0 0 0 0 0 0 0 0 0 0 0 0 0 0 0 0 0 0 0 0 0 0 0 0 0 0
-0 -0 -0 -0 -0 -0 0 0 0 0 0 0 0 0 0 0 0 0 0 0 0 0 0 0 0 0 0 0 0 0 0 0 0 0 0 0 0 0 0 0 0 0 0
Wind_Speed_500mb
80 84 99 102 106 108 105 102 103 92 86 83 82 75 73 69 62 60 52 51 49 45 38 33 29 27 24 21 19 19 21 26 27 24 21 16 14 15 15 16 16 19 24
55 78 100 101 106 112 112 107 109 99 92 87 88 81 74 72 65 60 55 52 51 45 39 32 29 26 23 21 19 17 20 23 28 24 19 11 15 22 22 21 23 25 28
71 73 93 104 109 114 120 121 113 100 94 95 91 81 75 72 70 66 60 54 50 44 37 35 32 28 23 20 18 16 16 20 27 21 14 9 10 9 16 20 22 27 28
73 77 95 105 119 120 118 124 108 110 103 100 98 86 84 84 77 73 65 61 53 45 41 35 29 25 22 19 17 18 17 16 17 20 23 19 16 7 6 9 15 19 31
84 81 94 106 117 123 126 129 117 113 103 99 91 91 83 84 79 77 70 64 58 48 46 37 30 24 20 17 16 14 14 15 13 12 12 9 8 9 10 11 10 25 29
77 81 85 99 112 123 129 131 128 107 103 96 100 96 92 89 86 80 74 69 61 53 44 36 30 24 18 16 13 12 12 12 10 8 7 6 5 10 12 17 24 27 27
68 73 81 89 106 117 129 128 114 103 110 107 104 98 92 87 89 84 77 72 61 50 46 38 31 24 19 14 11 10 9 8 5 2 3 8 12 15 20 23 27 31 34
71 73 77 85 75 103 128 120 115 117 114 113 108 97 91 94 90 88 78 62 56 50 41 30 21 20 17 14 11 11 8 5 1 4 9 14 17 20 23 27 29 34 33
67 67 66 77 82 75 125 127 122 120 118 113 106 97 95 89 84 76 66 57 50 42 34 25 24 16 12 13 12 10 6 3 3 7 12 17 20 21 24 28 31 32 25
49 56 63 65 87 84 73 117 118 115 112 115 107 100 88 74 73 69 67 58 53 46 35 27 17 20 17 15 12 8 6 4 7 11 14 17 20 22 24 28 32 36 36
53 62 50 53 69 82 87 98 112 114 112 104 94 78 70 70 71 69 64 55 44 37 30 26 25 21 17 15 12 10 8 8 11 13 14 16 20 23 27 33 35 37 41
47 45 49 52 59 74 81 77 90 88 84 79 73 72 71 76 78 67 58 48 39 35 33 27 25 24 19 14 15 13 11 13 13 13 16 19 23 27 32 34 37 39 43
39 42 41 45 57 66 74 71 73 78 74 70 70 73 82 76 69 63 56 54 42 34 31 31 26 22 17 18 17 16 16 15 14 16 19 22 26 30 34 38 40 41 43
30 39 44 47 51 57 64 68 61 66 72 75 84 85 75 72 67 63 57 50 45 35 31 28 26 21 22 21 20 19 16 17 18 20 24 26 29 34 39 42 44 45 47
17 32 45 47 51 60 63 62 66 79 87 88 84 76 67 59 59 60 52 43 37 33 33 28 24 24 24 22 20 19 19 21 23 25 27 30 37 41 43 45 44 49 50
19 29 39 50 52 58 62 61 77 86 89 81 73 60 55 57 59 49 45 42 37 35 31 26 25 24 23 21 21 22 23 26 27 29 33 39 43 43 43 45 46 45 45
22 30 40 45 51 56 63 68 74 84 86 76 67 69 65 58 55 49 41 37 34 31 28 25 23 23 23 25 24 25 26 30 32 35 41 42 44 47 48 46 43 42 40
19 31 35 48 52 61 70 79 82 79 77 74 70 68 62 53 49 44 39 35 32 28 22 21 23 23 23 28 28 29 31 35 37 42 44 46 46 50 51 46 43 43 42
13 25 33 41 52 61 63 71 75 73 66 66 67 58 52 49 46 41 37 34 28 23 18 19 22 23 25 30 32 35 38 39 41 46 50 51 49 48 51 48 46 45 44
22 27 39 49 56 55 56 57 70 66 62 62 54 50 47 44 39 35 34 27 21 16 18 20 23 25 26 31 35 39 42 46 49 52 53 50 49 51 49 45 45 45 45
17 20 26 35 42 48 51 59 64 59 54 49 47 43 42 39 34 33 28 21 16 15 19 21 23 25 28 31 36 43 51 53 54 54 52 50 52 51 47 44 42 43 47
14 15 19 23 26 30 37 46 57 54 47 42 41 43 44 41 36 32 27 20 18 19 19 21 23 26 29 33 40 48 53 54 57 54 51 50 49 48 45 42 37 42 46
9 12 14 20 23 24 26 28 37 44 42 46 47 45 40 35 36 32 25 21 19 20 20 23 26 22 27 35 42 49 54 55 58 53 51 51 47 46 42 37 40 42 45
5 12 13 16 22 30 34 35 41 47 48 47 46 42 38 38 33 26 24 23 21 23 25 24 22 25 29 36 45 52 52 50 50 49 50 48 46 44 40 38 39 41 45
10 13 12 13 17 23 29 37 42 44 45 41 42 41 34 30 27 25 25 25 27 30 28 25 22 24 32 39 48 54 55 51 45 45 46 46 45 43 34 34 39 42 46
7 9 11 13 14 18 28 36 39 40 40 39 39 33 30 31 30 31 30 31 31 32 31 27 25 28 35 42 50 54 51 45 40 40 37 35 32 32 33 38 42 43 46
Wind_Direction_500mb
240 231 223 217 212 211 206 203 201 200 205 200 197 195 195 195 201 207 209 209 209 207 205 209 212 206 204 209 206 204 200 191 193 198 188 202 231 255 271 285 298 315 325
249 230 223 217 215 213 208 204 203 204 205 205 203 202 197 199 205 208 209 208 209 202 203 205 206 203 209 207 200 195 199 198 196 203 205 207 240 253 265 276 291 305 315
244 229 218 217 215 213 209 206 203 207 208 203 204 205 202 203 205 207 205 204 205 197 202 199 197 201 199 205 199 196 201 210 200 206 215 202 225 236 264 273 283 298 315
235 236 216 213 214 212 210 209 205 206 208 205 207 209 207 205 207 208 202 202 200 193 192 192 194 196 194 195 194 193 196 198 207 208 225 242 248 239 258 276 288 300 322
229 228 220 212 213 211 211 209 204 204 205 205 209 210 213 212 214 206 199 196 196 188 190 185 188 188 188 192 186 182 179 181 190 202 209 223 246 259 264 282 287 306 321
224 222 231 211 209 206 206 205 201 198 203 209 211 212 215 214 213 202 196 190 187 186 184 179 180 181 182 184 178 175 167 169 171 179 203 241 271 295 312 310 313 318 330
217 218 213 206 208 204 202 202 197 198 202 208 212 212 216 219 220 203 196 190 182 181 177 171 172 174 178 184 176 171 178 169 162 161 328 320 327 329 326 326 325 324 328
213 217 209 203 209 197 203 199 198 203 204 208 212 211 215 215 213 203 194 181 173 175 169 161 162 169 173 175 175 185 184 165 200 339 334 324 328 331 329 328 324 323 321
209 212 213 203 208 196 199 204 200 204 205 207 209 212 216 213 203 188 172 177 165 164 153 162 168 175 188 188 193 192 185 212 314 330 322 324 327 327 323 319 321 323 319
204 207 213 207 208 205 199 200 203 202 205 204 205 208 207 200 185 173 162 166 161 162 155 167 174 201 194 198 194 204 230 272 313 313 317 319 316 316 318 321 324 322 315
205 219 214 206 204 200 200 194 193 194 199 197 199 198 187 178 170 167 162 163 161 149 158 178 187 193 202 203 209 229 250 279 287 300 306 305 310 318 323 323 318 315 311
200 201 206 199 192 192 189 194 192 192 191 189 187 181 176 172 167 168 157 150 166 165 183 179 193 201 203 213 229 240 252 264 277 291 300 308 319 323 318 312 311 309 305
166 179 190 187 180 179 180 184 184 185 179 177 175 167 164 159 161 159 157 160 163 170 182 191 194 203 212 228 238 245 252 264 279 296 301 310 316 315 310 309 306 304 303
149 160 174 179 176 172 170 174 175 179 169 164 162 158 157 158 159 162 163 155 169 185 190 195 202 212 224 231 238 247 260 271 287 295 300 307 313 313 308 306 305 302 300
152 154 165 171 172 171 164 162 167 167 161 155 155 152 152 156 165 161 165 177 181 184 197 203 211 222 230 234 244 257 267 279 287 292 300 309 310 306 304 303 300 297 300
156 156 163 169 169 166 158 161 167 162 152 148 147 152 168 163 161 170 175 177 183 193 201 210 220 230 239 245 254 264 272 279 290 301 305 302 300 301 301 299 296 296 300
145 148 160 162 162 161 154 157 160 154 150 148 153 152 150 159 164 173 177 184 193 201 208 217 230 238 246 253 260 269 276 284 291 296 291 292 297 300 298 296 295 298 296
136 148 152 158 159 155 153 155 159 156 155 157 157 156 167 172 176 177 179 188 199 208 217 230 240 248 256 259 267 274 282 286 292 291 294 295 297 298 296 300 301 299 298
120 152 148 150 159 156 154 157 160 159 157 161 164 168 171 174 178 180 183 193 203 214 228 243 254 264 263 266 273 280 284 288 292 292 293 293 296 297 298 299 297 297 299
89 132 144 145 144 149 156 158 167 166 165 172 171 170 172 179 183 186 189 195 207 222 243 258 266 273 275 275 280 286 290 291 293 289 289 295 298 296 297 293 294 297 300
82 118 146 160 164 168 172 173 175 178 176 172 172 174 177 183 186 192 194 199 212 241 262 269 276 286 291 290 290 288 287 288 286 289 295 296 294 294 293 291 294 293 296
85 116 133 156 178 184 180 182 186 184 178 175 176 177 187 191 191 196 199 207 228 252 270 285 292 297 294 291 288 285 285 288 290 296 295 292 291 289 288 292 289 287 293
59 119 136 146 162 176 189 190 188 180 179 184 186 189 193 195 201 204 210 227 251 277 291 287 290 294 288 294 296 297 296 295 293 296 295 292 288 282 289 288 287 290 298
91 132 136 147 163 165 175 177 182 182 187 190 191 192 197 205 205 211 229 244 262 278 281 280 286 298 311 315 309 302 298 298 298 295 288 282 278 281 286 284 289 298 305
105 132 127 135 153 164 171 178 185 187 190 191 196 199 206 212 218 230 245 254 262 269 270 272 285 306 313 313 314 313 309 302 294 283 275 276 277 282 283 290 299 307 309
91 106 124 134 138 156 174 180 184 189 197 198 200 206 216 220 227 239 247 257 267 269 267 271 282 295 309 314 315 310 305 302 296 289 281 278 273 271 284 295 302 306 306
Wind_Speed_850mb
80 84 99 102 106 108 105 102 103 92 86 83 82 75 73 69 62 60 52 51 49 45 38 33 29 27 24 21 19 19 21 26 27 24 21 16 14 15 15 16 16 19 24
55 78 100 101 106 112 112 107 109 99 92 87 88 81 74 72 65 60 55 52 51 45 39 32 29 26 23 21 19 17 20 23 28 24 19 11 15 22 22 21 23 25 28
71 73 93 104 109 114 120 121 113 100 94 95 91 81 75 72 70 66 60 54 50 44 37 35 32 28 23 20 18 16 16 20 27 21 14 9 10 9 16 20 22 27 28
73 77 95 105 119 120 118 124 108 110 103 100 98 86 84 84 77 73 65 61 53 45 41 35 29 25 22 19 17 18 17 16 17 20 23 19 16 7 6 9 15 19 31
84 81 94 106 117 123 126 129 117 113 103 99 91 91 83 84 79 77 70 64 58 48 46 37 30 24 20 17 16 14 14 15 13 12 12 9 8 9 10 11 10 25 29
77 81 85 99 112 123 129 131 128 107 103 96 100 96 92 89 86 80 74 69 61 53 44 36 30 24 18 16 13 12 12 12 10 8 7 6 5 10 12 17 24 27 27
68 73 81 89 106 117 129 128 114 103 110 107 104 98 92 87 89 84 77 72 61 50 46 38 31 24 19 14 11 10 9 8 5 2 3 8 12 15 20 23 27 31 34
71 73 77 85 75 103 128 120 115 117 114 113 108 97 91 94 90 88 78 62 56 50 41 30 21 20 17 14 11 11 8 5 1 4 9 14 17 20 23 27 29 34 33
67 67 66 77 82 75 125 127 122 120 118 113 106 97 95 89 84 76 66 57 50 42 34 25 24 16 12 13 12 10 6 3 3 7 12 17 20 21 24 28 31 32 25
49 56 63 65 87 84 73 117 118 115 112 115 107 100 88 74 73 69 67 58 53 46 35 27 17 20 17 15 12 8 6 4 7 11 14 17 20 22 24 28 32 36 36
53 62 50 53 69 82 87 98 112 114 112 104 94 78 70 70 71 69 64 55 44 37 30 26 25 21 17 15 12 10 8 8 11 13 14 16 20 23 27 33 35 37 41
47 45 49 52 59 74 81 77 90 88 84 79 73 72 71 76 78 67 58 48 39 35 33 27 25 24 19 14 15 13 11 13 13 13 16 19 23 27 32 34 37 39 43
39 42 41 45 57 66 74 71 73 78 74 70 70 73 82 76 69 63 56 54 42 34 31 31 26 22 17 18 17 16 16 15 14 16 19 22 26 30 34 38 40 41 43
30 39 44 47 51 57 64 68 61 66 72 75 84 85 75 72 67 63 57 50 45 35 31 28 26 21 22 21 20 19 16 17 18 20 24 26 29 34 39 42 44 45 47
17 32 45 47 51 60 63 62 66 79 87 88 84 76 67 59 59 60 52 43 37 33 33 28 24 24 24 22 20 19 19 21 23 25 27 30 37 41 43 45 44 49 50
19 29 39 50 52 58 62 61 77 86 89 81 73 60 55 57 59 49 45 42 37 35 31 26 25 24 23 21 21 22 23 26 27 29 33 39 43 43 43 45 46 45 45
22 30 40 45 51 56 63 68 74 84 86 76 67 69 65 58 55 49 41 37 34 31 28 25 23 23 23 25 24 25 26 30 32 35 41 42 44 47 48 46 43 42 40
19 31 35 48 52 61 70 79 82 79 77 74 70 68 62 53 49 44 39 35 32 28 22 21 23 23 23 28 28 29 31 35 37 42 44 46 46 50 51 46 43 43 42
13 25 33 41 52 61 63 71 75 73 66 66 67 58 52 49 46 41 37 34 28 23 18 19 22 23 25 30 32 35 38 39 41 46 50 51 49 48 51 48 46 45 44
22 27 39 49 56 55 56 57 70 66 62 62 54 50 47 44 39 35 34 27 21 16 18 20 23 25 26 31 35 39 42 46 49 52 53 50 49 51 49 45 45 45 45
17 20 26 35 42 48 51 59 64 59 54 49 47 43 42 39 34 33 28 21 16 15 19 21 23 25 28 31 36 43 51 53 54 54 52 50 52 51 47 44 42 43 47
14 15 19 23 26 30 37 46 57 54 47 42 41 43 44 41 36 32 27 20 18 19 19 21 23 26 29 33 40 48 53 54 57 54 51 50 49 48 45 42 37 42 46
9 12 14 20 23 24 26 28 37 44 42 46 47 45 40 35 36 32 25 21 19 20 20 23 26 22 27 35 42 49 54 55 58 53 51 51 47 46 42 37 40 42 45
5 12 13 16 22 30 34 35 41 47 48 47 46 42 38 38 33 26 24 23 21 23 25 24 22 25 29 36 45 52 52 50 50 49 50 48 46 44 40 38 39 41 45
10 13 12 13 17 23 29 37 42 44 45 41 42 41 34 30 27 25 25 25 27 30 28 25 22 24 32 39 48 54 55 51 45 45 46 46 45 43 34 34 39 42 46
7 9 11 13 14 18 28 36 39 40 40 39 39 33 30 31 30 31 30 31 31 32 31 27 25 28 35 42 50 54 51 45 40 40 37 35 32 32 33 38 42 43 46
Wind_Direction_850mb
240 231 223 217 212 211 206 203 201 200 205 200 197 195 195 195 201 207 209 209 209 207 205 209 212 206 204 209 206 204 200 191 193 198 188 202 231 255 271 285 298 315 325
249 230 223 217 215 213 208 204 203 204 205 205 203 202 197 199 205 208 209 208 209 202 203 205 206 203 209 207 200 195 199 198 196 203 205 207 240 253 265 276 291 305 315
244 229 218 217 215 213 209 206 203 207 208 203 204 205 202 203 205 207 205 204 205 197 202 199 197 201 199 205 199 196 201 210 200 206 215 202 225 236 264 273 283 298 315
235 236 216 213 214 212 210 209 205 206 208 205 207 209 207 205 207 208 202 202 200 193 192 192 194 196 194 195 194 193 196 198 207 208 225 242 248 239 258 276 288 300 322
229 228 220 212 213 211 211 209 204 204 205 205 209 210 213 212 214 206 199 196 196 188 190 185 188 188 188 192 186 182 179 181 190 202 209 223 246 259 264 282 287 306 321
224 222 231 211 209 206 206 205 201 198 203 209 211 212 215 214 213 202 196 190 187 186 184 179 180 181 182 184 178 175 167 169 171 179 203 241 271 295 312 310 313 318 330
217 218 213 206 208 204 202 202 197 198 202 208 212 212 216 219 220 203 196 190 182 181 177 171 172 174 178 184 176 171 178 169 162 161 328 320 327 329 326 326 325 324 328
213 217 209 203 209 197 203 199 198 203 204 208 212 211 215 215 213 203 194 181 173 175 169 161 162 169 173 175 175 185 184 165 200 339 334 324 328 331 329 328 324 323 321
209 212 213 203 208 196 199 204 200 204 205 207 209 212 216 213 203 188 172 177 165 164 153 162 168 175 188 188 193 192 185 212 314 330 322 324 327 327 323 319 321 323 319
204 207 213 207 208 205 199 200 203 202 205 204 205 208 207 200 185 173 162 166 161 162 155 167 174 201 194 198 194 204 230 272 313 313 317 319 316 316 318 321 324 322 315
205 219 214 206 204 200 200 194 193 194 199 197 199 198 187 178 170 167 162 163 161 149 158 178 187 193 202 203 209 229 250 279 287 300 306 305 310 318 323 323 318 315 311
200 201 206 199 192 192 189 194 192 192 191 189 187 181 176 172 167 168 157 150 166 165 183 179 193 201 203 213 229 240 252 264 277 291 300 308 319 323 318 312 311 309 305
166 179 190 187 180 179 180 184 184 185 179 177 175 167 164 159 161 159 157 160 163 170 182 191 194 203 212 228 238 245 252 264 279 296 301 310 316 315 310 309 306 304 303
149 160 174 179 176 172 170 174 175 179 169 164 162 158 157 158 159 162 163 155 169 185 190 195 202 212 224 231 238 247 260 271 287 295 300 307 313 313 308 306 305 302 300
152 154 165 171 172 171 164 162 167 167 161 155 155 152 152 156 165 161 165 177 181 184 197 203 211 222 230 234 244 257 267 279 287 292 300 309 310 306 304 303 300 297 300
156 156 163 169 169 166 158 161 167 162 152 148 147 152 168 163 161 170 175 177 183 193 201 210 220 230 239 245 254 264 272 279 290 301 305 302 300 301 301 299 296 296 300
145 148 160 162 162 161 154 157 160 154 150 148 153 152 150 159 164 173 177 184 193 201 208 217 230 238 246 253 260 269 276 284 291 296 291 292 297 300 298 296 295 298 296
136 148 152 158 159 155 153 155 159 156 155 157 157 156 167 172 176 177 179 188 199 208 217 230 240 248 256 259 267 274 282 286 292 291 294 295 297 298 296 300 301 299 298
120 152 148 150 159 156 154 157 160 159 157 161 164 168 171 174 178 180 183 193 203 214 228 243 254 264 263 266 273 280 284 288 292 292 293 293 296 297 298 299 297 297 299
89 132 144 145 144 149 156 158 167 166 165 172 171 170 172 179 183 186 189 195 207 222 243 258 266 273 275 275 280 286 290 291 293 289 289 295 298 296 297 293 294 297 300
82 118 146 160 164 168 172 173 175 178 176 172 172 174 177 183 186 192 194 199 212 241 262 269 276 286 291 290 290 288 287 288 286 289 295 296 294 294 293 291 294 293 296
85 116 133 156 178 184 180 182 186 184 178 175 176 177 187 191 191 196 199 207 228 252 270 285 292 297 294 291 288 285 285 288 290 296 295 292 291 289 288 292 289 287 293
59 119 136 146 162 176 189 190 188 180 179 184 186 189 193 195 201 204 210 227 251 277 291 287 290 294 288 294 296 297 296 295 293 296 295 292 288 282 289 288 287 290 298
91 132 136 147 163 165 175 177 182 182 187 190 191 192 197 205 205 211 229 244 262 278 281 280 286 298 311 315 309 302 298 298 298 295 288 282 278 281 286 284 289 298 305
105 132 127 135 153 164 171 178 185 187 190 191 196 199 206 212 218 230 245 254 262 269 270 272 285 306 313 313 314 313 309 302 294 283 275 276 277 282 283 290 299 307 309
91 106 124 134 138 156 174 180 184 189 197 198 200 206 216 220 227 239 247 257 267 269 267 271 282 295 309 314 315 310 305 302 296 289 281 278 273 271 284 295 302 306 306